Date,TemperatureHighF,TemperatureAvgF,TemperatureLowF,DewpointHighF,DewpointAvgF,DewpointLowF,HumidityHigh,HumidityAvg,HumidityLow,PressureMaxIn,PressureMinIn,WindSpeedMaxMPH,WindSpeedAvgMPH,GustSpeedMaxMPH,PrecipitationSumIn
2013-1-1,26,17,2,16,10,-3,98,77,51,0.00,40.00,0,0,0,0.00
2013-1-2,32,16,-3,22,10,-3,99,81,59,0.00,40.00,0,0,0,0.00
2013-1-3,34,26,13,31,24,11,98,90,61,0.00,40.00,0,0,0,0.00
2013-1-4,36,22,7,26,18,-15,99,84,29,0.00,40.00,0,0,0,0.00
2013-1-5,39,30,13,37,28,12,99,95,81,0.00,40.00,0,0,0,0.00
2013-1-6,37,28,18,35,23,17,99,83,60,0.00,40.00,0,0,0,0.00
2013-1-7,43,30,16,30,24,13,99,80,48,0.00,40.00,0,0,0,0.00
2013-1-8,48,36,26,32,29,2,99,79,34,0.00,40.00,0,0,0,0.00
2013-1-9,53,40,28,38,33,27,99,78,42,0.00,40.00,0,0,0,0.00
2013-1-10,42,36,26,42,34,26,99,94,59,0.00,40.00,0,0,0,0.00
2013-1-11,59,51,40,52,47,40,99,89,73,0.00,40.00,0,0,0,0.00
2013-1-12,56,40,24,48,32,-11,99,76,18,0.00,40.00,0,0,0,0.00
2013-1-13,24,19,9,24,14,-3,99,83,52,0.00,40.00,0,0,0,0.00
2013-1-14,28,14,6,15,9,-100,99,84,47,0.00,40.00,0,0,0,0.00
2013-1-15,33,20,5,18,13,5,99,79,47,0.00,40.00,0,0,0,0.00
2013-1-16,40,25,6,28,17,-16,99,75,26,0.00,40.00,0,0,0,0.00
2013-1-17,37,30,20,34,22,11,99,75,47,0.00,40.00,0,0,0,0.00
2013-1-18,51,37,18,33,27,17,99,69,45,0.00,40.00,0,0,0,0.00
2013-1-19,55,45,38,39,34,23,77,64,52,0.00,40.00,0,0,0,0.00
2013-1-20,38,21,14,25,13,9,92,73,55,0.00,40.00,0,0,0,0.00
2013-1-21,15,12,8,13,4,0,92,72,55,0.00,40.00,0,0,0,0.00
2013-1-22,16,10,3,7,3,-1,85,72,58,0.00,40.00,0,0,0,0.00
2013-1-23,38,23,12,22,14,6,82,67,52,0.00,40.00,0,0,0,0.00
2013-1-24,24,17,9,13,7,2,76,64,51,0.00,40.00,0,0,0,0.00
2013-1-25,42,30,24,25,18,13,84,63,46,0.00,40.00,0,0,0,0.00
2013-1-26,35,24,12,18,14,9,88,66,46,0.00,40.00,0,0,0,0.00
2013-1-27,30,29,27,26,21,18,87,73,64,0.00,40.00,0,0,0,0.00
2013-1-28,58,52,48,56,52,48,99,99,99,0.00,40.00,0,0,0,0.00
2013-1-29,63,55,38,62,55,38,99,99,96,0.00,40.00,0,0,0,0.00
2013-1-30,38,30,21,38,28,1,99,91,28,0.00,40.00,0,0,0,0.00
2013-1-31,19,13,6,14,6,0,89,73,59,0.00,40.00,0,0,0,0.00
2013-2-1,24,12,2,20,3,-4,93,69,54,0.00,40.00,0,0,0,0.00
2013-2-2,30,25,20,25,18,7,97,76,54,0.00,40.00,0,0,0,0.00
2013-2-3,33,27,21,27,19,14,99,74,48,0.00,40.00,0,0,0,0.00
2013-2-4,40,30,24,28,23,19,90,76,59,0.00,40.00,0,0,0,0.00
2013-2-5,46,33,23,33,28,17,99,85,57,0.00,40.00,0,0,0,0.00
2013-2-6,49,36,20,35,29,20,99,78,49,0.00,40.00,0,0,0,0.00
2013-2-7,41,38,33,40,37,11,99,96,32,0.00,40.00,0,0,0,0.00
2013-2-8,35,32,29,33,30,27,99,93,84,0.00,40.00,0,0,0,0.00
2013-2-9,38,32,28,34,29,-3,97,88,25,0.00,40.00,0,0,0,0.00
2013-2-10,55,44,36,53,40,29,99,88,43,0.00,40.00,0,0,0,0.00
2013-2-11,43,36,27,29,26,23,99,68,57,0.00,40.00,0,0,0,0.00
2013-2-12,42,31,23,31,27,23,99,86,53,0.00,40.00,0,0,0,0.00
2013-2-13,48,35,21,34,29,21,99,80,52,0.00,40.00,0,0,0,0.00
2013-2-14,45,39,34,35,33,31,92,79,60,0.00,40.00,0,0,0,0.00
2013-2-15,37,29,22,31,18,13,91,65,43,0.00,40.00,0,0,0,0.00
2013-2-16,34,24,14,19,16,12,94,74,51,0.00,40.00,0,0,0,0.00
2013-2-17,43,30,16,28,21,13,99,74,44,0.00,40.00,0,0,0,0.00
2013-2-18,58,40,27,50,36,22,99,85,62,0.00,40.00,0,0,0,0.00
2013-2-19,27,21,17,23,15,10,87,75,61,0.00,40.00,0,0,0,0.00
2013-2-20,22,16,6,16,9,2,85,73,59,0.00,40.00,0,0,0,0.00
2013-2-21,29,22,16,28,21,15,99,95,84,0.00,40.00,1,0,7,0.00
2013-2-22,31,29,26,31,26,19,99,88,75,0.00,40.00,0,0,0,0.00
2013-2-23,33,25,15,20,18,13,98,76,58,0.00,40.00,0,0,0,0.00
2013-2-24,43,27,5,25,17,-20,99,70,21,0.00,40.00,0,0,0,0.00
2013-2-25,41,33,22,35,29,22,99,84,64,0.00,40.00,0,0,0,0.00
2013-2-26,36,33,31,33,32,31,99,95,84,0.00,40.00,0,0,6,0.00
2013-2-27,35,32,30,34,32,30,99,98,92,0.00,40.00,0,0,0,0.00
2013-2-28,36,32,30,32,31,29,99,94,80,0.00,40.00,0,0,0,0.00
2013-3-1,32,28,26,29,26,18,99,90,66,0.00,40.00,0,0,0,0.00
2013-3-2,35,26,13,25,17,11,97,72,45,0.00,40.00,0,0,0,0.00
2013-3-3,37,22,5,21,13,-2,99,72,39,0.00,40.00,0,0,0,0.00
2013-3-4,40,34,29,32,29,19,99,81,59,0.00,40.00,0,0,0,0.00
2013-3-5,34,32,30,32,29,24,99,89,67,0.00,40.00,0,0,0,0.00
2013-3-6,33,28,24,27,23,20,92,82,68,0.00,40.00,0,0,0,0.00
2013-3-7,38,29,23,29,24,20,99,83,59,0.00,40.00,0,0,0,0.00
2013-3-8,47,37,26,36,31,25,99,81,59,0.00,40.00,0,0,0,0.00
2013-3-9,53,44,37,45,40,35,99,87,69,0.00,40.00,0,0,0,0.00
2013-3-10,51,47,43,51,47,39,99,98,72,0.00,40.00,0,0,0,0.00
2013-3-11,43,34,31,43,33,27,99,95,85,0.00,40.00,0,0,0,0.00
2013-3-12,39,32,26,31,26,20,94,78,60,0.00,40.00,0,0,0,0.00
2013-3-13,39,30,23,24,19,12,96,66,37,0.00,40.00,0,0,0,0.00
2013-3-14,54,37,23,34,28,23,99,75,42,0.00,40.00,0,0,0,0.00
2013-3-15,58,43,28,45,38,27,99,82,55,0.00,40.00,0,0,0,0.00
2013-3-16,46,39,35,45,36,33,99,91,76,0.00,40.00,0,0,0,0.00
2013-3-17,40,35,31,34,30,27,94,82,67,0.00,40.00,0,0,0,0.00
2013-3-18,46,36,28,39,31,19,99,84,45,0.00,40.00,0,0,0,0.00
2013-3-19,42,32,22,19,17,14,80,56,34,0.00,40.00,0,0,0,0.00
2013-3-30,56,51,48,47,41,-100,99,74,47,0.00,40.00,0,0,0,0.00
2013-3-31,63,50,41,50,41,27,99,75,36,0.00,40.00,0,0,0,0.00
2013-4-1,46,37,29,29,22,16,84,56,33,0.00,40.00,0,0,0,0.00
2013-4-2,49,36,21,28,20,-6,99,60,12,0.00,40.00,0,0,0,0.00
2013-4-3,53,38,23,29,21,17,97,55,27,0.00,40.00,0,0,0,0.00
2013-4-4,61,44,26,34,27,15,99,59,25,0.00,40.00,0,0,0,0.00
2013-4-5,64,50,33,38,31,28,99,54,28,0.00,40.00,0,0,0,0.00
2013-4-6,72,60,49,55,40,28,78,49,34,0.00,40.00,0,0,0,0.00
2013-4-7,75,58,38,48,44,38,99,64,33,0.00,40.00,0,0,0,0.00
2013-4-8,73,63,55,61,57,45,99,82,53,0.00,40.00,0,0,0,0.00
2013-4-9,76,72,66,64,62,60,88,71,59,0.00,40.00,0,0,0,0.00
2013-4-10,68,52,45,64,51,45,99,98,86,0.00,40.00,0,0,4,0.00
2013-4-11,49,44,38,48,41,31,99,89,74,0.00,40.00,0,0,0,0.00
2013-4-12,45,40,37,36,34,31,92,79,69,0.00,40.00,0,0,0,0.00
2013-4-13,53,44,36,37,32,28,79,63,44,0.00,40.00,0,0,0,0.00
2013-4-14,77,62,48,56,46,36,87,59,33,0.00,40.00,0,0,9,0.00
2013-4-15,66,54,45,57,50,39,99,86,55,0.00,40.00,0,0,9,0.00
2013-4-16,51,46,41,41,39,36,99,78,64,0.00,40.00,0,0,0,0.00
2013-4-17,58,48,13,58,46,13,99,92,73,0.00,40.00,0,-7,1,0.00
2013-4-18,62,52,38,61,50,32,99,94,75,0.00,40.00,0,-7,0,0.00
2013-4-19,45,40,36,33,30,27,82,68,51,0.00,40.00,0,0,0,0.00
2013-4-20,52,41,31,32,29,24,95,65,35,0.00,40.00,0,0,0,0.00
2013-4-21,63,50,41,44,37,31,73,61,47,0.00,40.00,0,0,0,0.00
2013-4-22,70,58,45,50,40,38,75,54,33,0.00,40.00,0,0,0,0.00
2013-4-23,59,44,38,54,43,38,99,97,73,0.00,40.00,0,0,0,0.00
2013-4-24,52,43,36,39,33,20,99,70,39,0.00,40.00,0,0,0,0.00
2013-4-25,61,50,38,40,35,31,93,60,37,0.00,40.00,0,0,0,0.00
2013-4-26,63,54,46,50,44,38,86,71,59,0.00,40.00,0,0,0,0.00
2013-4-27,56,51,45,53,49,45,99,94,69,0.00,40.00,0,0,0,0.00
2013-4-28,69,58,50,56,52,47,99,83,54,0.00,40.00,0,0,0,0.00
2013-4-29,80,62,47,62,54,47,99,78,47,0.00,40.00,0,0,0,0.00
2013-4-30,86,77,66,63,58,52,92,55,32,0.00,40.00,0,0,0,0.00
2013-5-1,84,73,62,60,57,53,84,59,38,0.00,40.00,0,0,0,0.00
2013-5-2,63,51,40,53,47,40,99,88,71,0.00,40.00,0,0,0,0.00
2013-5-3,49,41,38,47,40,38,99,99,99,0.00,40.00,0,0,0,0.00
2013-5-4,56,51,45,56,50,35,99,98,50,0.00,40.00,0,0,0,0.00
2013-5-5,72,59,48,58,52,48,99,80,51,0.00,40.00,0,0,0,0.00
2013-5-6,77,65,54,57,53,48,99,69,37,0.00,40.00,0,0,0,0.00
2013-5-7,81,67,54,59,52,44,99,66,29,0.00,40.00,0,0,0,0.00
2013-5-8,82,66,50,63,53,48,99,69,32,0.00,40.00,0,0,0,0.00
2013-5-9,69,63,60,66,62,46,99,96,49,0.00,40.00,0,0,1,0.00
2013-5-10,60,56,50,60,53,-100,99,94,83,0.00,40.00,0,0,0,0.00
2013-5-11,62,53,43,54,38,-100,99,66,33,0.00,40.00,0,0,0,0.00
2013-5-12,60,49,36,38,33,28,93,58,32,0.00,40.00,0,0,0,0.00
2013-5-13,72,56,36,49,38,32,99,59,25,0.00,40.00,0,0,0,0.00
2013-5-14,89,73,54,65,56,41,89,57,40,0.00,40.00,0,0,0,0.00
2013-5-15,86,76,65,66,61,57,94,60,48,0.00,40.00,0,0,0,0.00
2013-5-16,83,64,62,68,41,-100,99,79,47,0.00,40.00,0,0,0,0.00
2013-5-17,82,69,56,70,55,-100,99,80,45,0.00,40.00,0,0,0,0.00
2013-5-18,83,72,62,70,65,62,99,82,55,0.00,40.00,0,0,0,0.00
2013-5-19,87,76,67,76,70,62,99,85,63,0.00,40.00,0,0,0,0.00
2013-5-20,82,71,61,71,64,61,99,81,51,0.00,40.00,0,-15,0,0.00
2013-5-21,79,69,61,67,61,56,99,79,53,0.00,40.00,0,0,0,0.00
2013-5-22,71,64,58,62,58,54,99,84,57,0.00,40.00,0,0,0,0.00
2013-5-23,67,60,51,58,55,49,99,86,53,0.00,40.00,0,0,0,0.00
2013-5-24,68,57,44,52,44,38,99,69,36,0.00,40.00,0,0,0,0.00
2013-5-25,59,54,50,55,51,47,99,92,70,0.00,40.00,0,0,1,0.00
2013-5-26,71,59,52,65,57,50,99,94,76,0.00,40.00,0,0,1,0.00
2013-5-27,72,66,60,70,65,56,99,97,70,0.00,40.00,0,0,0,0.00
2013-5-28,79,71,63,75,69,62,99,95,82,0.00,40.00,0,0,0,0.00
2013-5-29,86,74,62,71,66,62,99,80,55,0.00,40.00,0,0,0,0.00
2013-5-30,83,72,63,73,68,62,99,86,63,0.00,40.00,0,0,2,0.00
2013-5-31,73,66,61,71,65,61,99,98,78,0.00,40.00,0,0,1,0.00
2013-6-1,76,68,61,69,62,-100,99,87,51,0.00,40.00,0,0,0,0.00
2013-6-2,65,60,55,61,55,30,99,84,31,0.00,40.00,0,0,0,0.00
2013-6-3,71,61,53,57,52,47,99,76,45,0.00,40.00,0,0,0,0.00
2013-6-4,74,63,51,61,55,50,99,77,51,0.00,40.00,0,0,0,0.00
2013-6-5,80,68,55,67,60,55,99,79,51,0.00,40.00,0,0,0,0.00
2013-6-6,80,67,61,65,61,54,99,82,46,0.00,40.00,0,0,0,0.00
2013-6-7,76,64,55,61,56,54,99,80,47,0.00,40.00,0,0,0,0.00
2013-6-8,79,66,52,64,56,52,99,75,43,0.00,40.00,0,0,0,0.00
2013-6-9,73,66,62,68,63,48,99,88,53,0.00,40.00,0,0,0,0.00
2013-6-10,81,69,61,68,63,61,99,84,57,0.00,40.00,0,0,0,0.00
2013-6-11,89,74,58,76,67,57,99,80,53,0.00,40.00,0,0,0,0.00
2013-6-12,93,81,68,75,72,68,99,76,51,0.00,40.00,0,0,0,0.00
2013-6-13,87,76,67,69,62,54,99,66,34,0.00,40.00,0,0,0,0.00
2013-6-14,80,70,60,69,62,56,99,78,47,0.00,40.00,0,0,0,0.00
2013-6-15,82,71,66,75,69,65,99,94,75,0.00,40.00,0,0,0,0.00
2013-6-16,86,74,65,74,69,65,99,86,54,0.00,40.00,0,0,0,0.00
2013-6-17,89,75,62,76,68,62,99,82,47,0.00,40.00,0,0,0,0.00
2013-6-18,86,75,66,71,67,64,99,78,54,0.00,40.00,0,0,0,0.00
2013-6-19,87,73,59,69,62,56,99,72,39,0.00,40.00,0,0,0,0.00
2013-6-20,89,71,61,69,65,61,99,84,53,0.00,40.00,0,0,0,0.00
2013-6-22,92,83,73,80,75,68,96,78,54,0.00,40.00,0,0,0,0.00
2013-6-23,89,74,69,77,71,64,99,90,68,0.00,40.00,0,0,0,0.00
2013-6-24,90,75,68,78,72,67,99,90,65,0.00,40.00,0,0,0,0.00
2013-6-25,89,79,71,81,75,67,99,88,68,0.00,40.00,0,0,0,0.00
2013-6-26,89,79,73,82,76,72,99,91,71,0.00,40.00,0,0,0,0.00
2013-6-27,94,79,70,75,71,63,99,78,41,0.00,40.00,0,0,0,0.00
2013-6-28,87,77,66,73,63,54,99,66,35,0.00,40.00,0,0,0,0.00
2013-6-29,78,69,64,70,65,60,99,88,64,0.00,40.00,0,0,0,0.00
2013-6-30,79,68,62,67,63,59,99,84,54,0.00,40.00,0,0,0,0.00
2013-7-1,82,70,57,63,56,50,99,64,35,0.00,40.00,0,0,0,0.00
2013-7-2,82,70,59,65,58,54,99,69,40,0.00,40.00,0,0,0,0.00
2013-7-3,84,71,60,68,60,54,99,74,38,0.00,40.00,0,0,0,0.00
2013-7-4,87,75,61,67,63,58,99,70,40,0.00,40.00,0,0,0,0.00
2013-7-5,87,75,62,69,64,61,99,73,44,0.00,40.00,0,0,0,0.00
2013-7-6,88,75,64,72,68,63,99,81,47,0.00,40.00,0,0,0,0.00
2013-7-7,91,80,67,75,70,57,99,76,51,0.00,40.00,0,0,0,0.00
2013-7-8,86,76,71,80,72,-100,99,94,75,0.00,40.00,0,0,0,0.00
2013-7-9,91,82,75,80,77,75,99,85,66,0.00,40.00,0,0,0,0.00
2013-7-10,91,80,66,79,66,-100,99,69,46,0.00,40.00,0,0,0,0.00
2013-7-11,87,72,59,68,61,56,99,74,39,0.00,40.00,0,0,0,0.00
2013-7-12,86,71,57,66,58,54,99,70,37,0.00,40.00,0,0,0,0.00
2013-7-13,87,73,56,67,61,56,99,71,41,0.00,40.00,0,0,0,0.00
2013-7-14,89,77,63,74,67,58,99,74,46,0.00,40.00,0,0,0,0.00
2013-7-15,92,79,68,78,72,68,99,82,49,0.00,40.00,0,0,0,0.00
2013-7-16,93,85,72,79,75,71,99,72,53,0.00,40.00,0,0,0,0.00
2013-7-17,98,85,71,80,74,70,99,75,45,0.00,40.00,0,0,0,0.00
2013-7-18,97,87,72,79,74,70,99,70,46,0.00,40.00,0,0,0,0.00
2013-7-19,96,86,76,77,74,70,97,70,44,0.00,40.00,0,0,0,0.00
2013-7-20,91,81,70,74,70,64,99,72,42,0.00,40.00,0,0,0,0.00
2013-7-21,81,72,65,77,70,65,99,95,78,0.00,40.00,0,0,0,0.00
2013-7-22,89,77,66,78,72,66,99,86,61,0.00,40.00,0,0,0,0.00
2013-7-23,87,73,64,69,65,61,99,78,52,0.00,40.00,0,0,0,0.00
2013-7-24,81,70,60,64,59,54,99,73,41,0.00,40.00,0,0,0,0.00
2013-7-25,84,69,54,66,59,54,99,75,42,0.00,40.00,0,0,0,0.00
2013-7-26,82,69,60,74,66,59,99,91,64,0.00,40.00,0,0,0,0.00
2013-7-27,73,64,53,62,53,47,99,72,43,0.00,40.00,0,0,0,0.00
2013-7-28,78,63,48,60,52,48,99,72,41,0.00,40.00,0,0,0,0.00
2013-7-29,81,67,50,66,57,50,99,74,43,0.00,40.00,0,0,0,0.00
2013-7-30,74,69,65,74,68,64,99,98,74,0.00,40.00,0,0,0,0.00
2013-7-31,78,72,66,72,69,65,99,92,73,0.00,40.00,0,0,0,0.00
2013-8-1,88,73,61,70,64,60,99,78,42,0.00,40.00,0,0,0,0.00
2013-8-2,86,75,68,73,70,67,99,86,54,0.00,40.00,0,0,0,0.00
2013-8-3,85,73,63,70,63,56,99,75,42,0.00,40.00,0,0,0,0.00
2013-8-4,83,71,57,66,60,56,99,74,40,0.00,40.00,0,0,0,0.00
2013-8-5,80,70,60,72,67,60,99,91,75,0.00,40.00,0,0,0,0.00
2013-8-6,91,76,66,78,72,66,99,89,53,0.00,40.00,0,0,0,0.00
2013-8-7,89,77,69,81,74,68,99,91,69,0.00,40.00,0,0,0,0.00
2013-8-8,83,73,62,73,68,62,99,87,67,0.00,40.00,0,0,0,0.00
2013-8-9,84,73,63,73,67,62,99,84,55,0.00,40.00,0,0,0,0.00
2013-8-10,84,72,60,69,62,56,99,75,41,0.00,40.00,0,0,0,0.00
2013-8-11,86,72,57,70,62,56,99,76,45,0.00,40.00,0,0,0,0.00
2013-8-21,91,78,64,72,68,64,99,76,45,0.00,40.00,0,0,0,0.00
2013-8-22,88,77,67,76,72,67,99,87,63,0.00,40.00,0,0,0,0.00
2013-8-23,89,77,66,73,70,65,99,81,52,0.00,40.00,0,0,0,0.00
2013-8-24,91,75,64,74,66,-100,99,79,51,0.00,40.00,0,0,0,0.00
2013-8-25,93,79,65,72,68,64,99,74,42,0.00,40.00,0,0,0,0.00
2013-8-26,96,80,64,73,69,63,99,74,43,0.00,40.00,0,0,0,0.00
2013-8-27,96,81,72,76,72,67,99,78,39,0.00,40.00,0,0,0,0.00
2013-9-21,73,58,48,58,46,-100,99,75,37,0.00,40.00,0,0,0,0.00
2013-9-22,75,58,44,58,50,43,99,78,39,0.00,40.00,0,0,0,0.00
2013-9-23,76,60,46,56,50,46,99,75,41,0.00,40.00,0,0,0,0.00
2013-9-24,77,63,49,61,56,49,99,80,55,0.00,40.00,0,0,0,0.00
2013-9-25,82,68,56,65,60,55,99,76,49,0.00,40.00,0,0,0,0.00
2013-9-26,85,69,55,65,60,55,99,78,45,0.00,40.00,0,0,0,0.00
2013-9-27,84,69,56,63,58,55,99,73,40,0.00,40.00,0,0,0,0.00
2013-10-12,75,64,50,64,48,-100,99,66,31,0.00,40.00,0,0,0,0.00
2013-10-13,71,57,37,45,36,28,99,55,22,0.00,40.00,0,0,0,0.00
2013-10-14,68,56,35,47,41,35,99,61,37,0.00,40.00,0,0,0,0.00
2013-10-15,67,58,47,61,52,43,99,80,48,0.00,40.00,0,0,0,0.00
2013-10-16,53,50,46,47,44,43,91,81,74,0.00,40.00,0,0,0,0.00
2013-10-17,65,52,43,50,43,35,99,76,34,0.00,40.00,0,0,0,0.00
2013-10-18,58,47,41,44,40,35,99,81,45,0.00,40.00,0,0,0,0.00
2013-10-31,64,56,46,64,56,46,99,99,99,0.00,40.00,0,0,0,0.00
2013-11-1,55,48,42,46,43,41,99,86,60,0.00,40.00,0,0,0,0.00
2013-11-2,56,45,33,45,35,-100,99,76,43,0.00,40.00,0,0,0,0.00
2013-11-3,57,42,27,42,32,27,99,71,39,0.00,40.00,0,0,0,0.00
2013-11-4,57,52,46,46,42,35,73,68,62,0.00,40.00,0,0,0,0.00
2013-11-5,57,54,51,57,52,41,99,94,64,0.00,40.00,0,0,0,0.00
2013-11-6,58,46,32,58,44,27,99,92,75,0.00,40.00,0,0,0,0.00
2013-12-22,32,27,17,31,24,13,98,91,82,0.00,40.00,14,6,23,0.00
2013-12-23,18,10,2,14,2,-7,84,72,61,0.00,40.00,14,8,24,0.00
2013-12-24,21,8,-6,12,0,-11,80,68,55,0.00,40.00,8,5,16,0.00
2013-12-25,32,27,21,27,23,13,92,83,67,0.00,40.00,15,8,22,0.00
2013-12-26,40,30,17,31,24,14,93,78,64,0.00,40.00,11,5,21,0.00
2013-12-27,47,37,21,33,29,20,98,76,57,0.00,40.00,11,5,21,0.00
2013-12-28,54,44,37,33,32,30,77,63,45,0.00,40.00,13,7,20,0.00